project_name,platform_name,Date_(yyyymmdd),Time_(hh24miss),beacon_ID,latitude_DD,longitude_DD,altitude_m,altitude_result_value_type,speed_m_s,speed_result_value_type,direction_degrees,direction_result_value_type,fix,sat
BaySys,Amundsen,2008-06-03,21:51:06,300034012526590,69.8581,-123.7534,4.0205,Actual,0.0000,Calculated,73.9100,Calculated,1,5
BaySys,Amundsen,2008-06-03,23:49:47,300034012526590,69.8581,-123.7534,-4.3560,Actual,0.0000,Calculated,196.7700,Calculated,1,9
BaySys,Amundsen,2008-06-04,01:50:12,300034012526590,69.8581,-123.7536,-1.2094,Actual,0.0011,Calculated,242.4700,Calculated,1,5
BaySys,Amundsen,2008-06-04,03:50:00,300034012526590,69.8581,-123.7534,-3.4414,Actual,0.0011,Calculated,8.1200,Calculated,1,8
BaySys,Amundsen,2008-06-04,05:50:29,300034012526590,69.8581,-123.7533,-1.1324,Actual,0.0005,Calculated,164.0500,Calculated,1,6
BaySys,Amundsen,2008-06-04,07:50:29,300034012526590,69.8581,-123.7533,1.5541,Actual,0.0000,Calculated,155.1700,Calculated,1,6
BaySys,Amundsen,2008-06-04,09:50:29,300034012526590,69.8581,-123.7534,1.3981,Actual,0.0005,Calculated,318.0700,Calculated,1,6
BaySys,Amundsen,2008-06-04,11:49:59,300034012526590,69.8581,-123.7534,-3.1947,Actual,0.0000,Calculated,229.6100,Calculated,1,12
BaySys,Amundsen,2008-06-04,13:50:35,300034012526590,69.8581,-123.7534,1.1111,Actual,0.0000,Calculated,174.9000,Calculated,1,10
BaySys,Amundsen,2008-06-04,15:50:35,300034012526590,69.8581,-123.7532,11.1277,Actual,0.0011,Calculated,170.3200,Calculated,1,6
BaySys,Amundsen,2008-06-04,17:50:11,300034012526590,69.8581,-123.7534,-12.5186,Actual,0.0011,Calculated,99.7700,Calculated,1,5
BaySys,Amundsen,2008-06-04,19:50:10,300034012526590,69.8581,-123.7534,-6.4705,Actual,0.0000,Calculated,126.7500,Calculated,1,9
BaySys,Amundsen,2008-06-04,21:50:13,300034012526590,69.8582,-123.7533,18.7501,Actual,0.0016,Calculated,202.5200,Calculated,1,12
BaySys,Amundsen,2008-06-04,23:50:08,300034012526590,69.8581,-123.7534,-7.8274,Actual,0.0016,Calculated,155.1500,Calculated,1,10
BaySys,Amundsen,2008-06-05,01:50:35,300034012526590,69.8614,-123.7737,-5.5493,Actual,0.1194,Calculated,323.2100,Calculated,1,10
BaySys,Amundsen,2008-06-05,03:50:21,300034012526590,69.8657,-123.8574,2.8919,Actual,0.4526,Calculated,226.1900,Calculated,1,8
BaySys,Amundsen,2008-06-05,05:50:35,300034012526590,69.8644,-123.8641,-8.9208,Actual,0.0410,Calculated,79.0500,Calculated,1,6
BaySys,Amundsen,2008-06-05,07:50:28,300034012526590,69.8645,-123.8641,2.3132,Actual,0.0016,Calculated,170.4800,Calculated,1,10
BaySys,Amundsen,2008-06-05,09:50:29,300034012526590,69.8645,-123.8641,-0.3330,Actual,0.0000,Calculated,232.0500,Calculated,1,11
BaySys,Amundsen,2008-06-05,11:50:59,300034012526590,69.8644,-123.8642,-14.0993,Actual,0.0016,Calculated,349.3800,Calculated,1,11
BaySys,Amundsen,2008-06-05,13:50:31,300034012526590,69.8645,-123.8642,1.5280,Actual,0.0016,Calculated,217.5800,Calculated,1,12
BaySys,Amundsen,2008-06-05,15:51:05,300034012526590,69.8645,-123.8642,4.0054,Actual,0.0000,Calculated,170.2300,Calculated,1,8
BaySys,Amundsen,2008-06-05,17:51:05,300034012526590,69.8645,-123.8641,-5.6747,Actual,0.0005,Calculated,66.8600,Calculated,1,9
BaySys,Amundsen,2008-06-05,19:50:34,300034012526590,69.8645,-123.8641,-6.7418,Actual,0.0000,Calculated,317.4500,Calculated,1,9
BaySys,Amundsen,2008-06-05,21:50:37,300034012526590,69.8645,-123.8642,5.8484,Actual,0.0005,Calculated,131.3800,Calculated,1,10
BaySys,Amundsen,2008-06-05,23:50:39,300034012526590,69.8645,-123.8641,-8.1533,Actual,0.0005,Calculated,233.8100,Calculated,1,9
BaySys,Amundsen,2008-06-06,01:51:00,300034012526590,69.8641,-123.8643,-1.3544,Actual,0.0063,Calculated,1.1400,Calculated,1,10
BaySys,Amundsen,2008-06-06,03:50:52,300034012526590,69.8645,-123.8642,-0.7813,Actual,0.0062,Calculated,88.2000,Calculated,1,8
BaySys,Amundsen,2008-06-06,05:51:05,300034012526590,69.8645,-123.8642,4.6601,Actual,0.0000,Calculated,77.5400,Calculated,1,6
BaySys,Amundsen,2008-06-06,07:51:16,300034012526590,69.8645,-123.8641,-2.3550,Actual,0.0005,Calculated,20.4700,Calculated,1,9
BaySys,Amundsen,2008-06-06,09:50:54,300034012526590,69.8645,-123.8642,7.5363,Actual,0.0005,Calculated,156.8200,Calculated,1,9
BaySys,Amundsen,2008-06-06,11:51:23,300034012526590,69.8644,-123.8642,-18.7112,Actual,0.0015,Calculated,71.2500,Calculated,1,11
BaySys,Amundsen,2008-06-06,13:50:57,300034012526590,69.8645,-123.8642,4.8299,Actual,0.0016,Calculated,270.5900,Calculated,1,9
BaySys,Amundsen,2008-06-06,15:51:29,300034012526590,69.8645,-123.8642,6.7276,Actual,0.0000,Calculated,70.4100,Calculated,1,5
BaySys,Amundsen,2008-06-06,17:51:21,300034012526590,69.8645,-123.8643,-8.2187,Actual,0.0005,Calculated,52.5300,Calculated,1,9
BaySys,Amundsen,2008-06-06,19:51:06,300034012526590,69.8645,-123.8642,-7.3930,Actual,0.0005,Calculated,86.3000,Calculated,1,8
BaySys,Amundsen,2008-06-06,21:51:05,300034012526590,69.8645,-123.8642,0.8278,Actual,0.0000,Calculated,350.8500,Calculated,1,10
BaySys,Amundsen,2008-06-06,23:51:35,300034012526590,69.8645,-123.8642,-11.9275,Actual,0.0000,Calculated,196.6000,Calculated,1,11
BaySys,Amundsen,2008-06-07,01:51:14,300034012526590,69.8671,-123.8463,35.2100,Actual,0.1040,Calculated,166.9300,Calculated,1,6
BaySys,Amundsen,2008-06-07,03:52:05,300034012526590,69.8373,-123.6243,30.0798,Actual,1.2635,Calculated,268.1800,Calculated,1,7
